Flag for Cyprus Weather past 2 weeks in Famagusta, Northern Cyprus, Cyprus

Now
81 °F

Passing clouds.


Feels Like: 81 °F
Forecast: 62 / 79 °F
Wind: 10 mph from South

Location: Larnaca Airport

Current Time: May 6, 2015 at 2:39:14 PM

Latest Report: May 6, 2015 at 2:00 PM


Visibility: N/A

Pressure: 29.80 "Hg

Humidity: 42%

Dew point: 55 °F

Location of FamagustaLocation

Historic Weather in Famagusta — Graph

°F

Famagusta temperature yesterday

Maximum temperature yesterday: 77 °F (at 4:30 PM)
Minimum temperature yesterday: 59 °F (at 1:30 AM)
Average temperature yesterday: 70 °F

Past Weeks' High & Low Weather Summary

 TemperatureHumidityPressure
High84 °F (Apr 28, 11:30 AM)94% (Apr 23, 1:30 AM)30.24 "Hg (Apr 23, 1:30 AM)
Low46 °F (Apr 23, 5:30 AM)19% (Apr 28, 10:00 AM)29.74 "Hg (Apr 21, 1:00 PM)
Average66 °F59%29.93 "Hg
* Reported Apr 21 1:00 PM — May 6 1:30 PM, Famagusta, Weather by CustomWeather, © 2015

Note: Actual official high and low records may vary slightly from our data, if they occured in-between our weather recording intervals... More about our weather records

Advertising

Famagusta weather history for previous 24 hours

 ConditionsComfort  
Time TempWeatherWind HumidityBarometerVisibility
1:30 PM
Wed, May 6
79 °FPassing clouds.9 mph37%29.83 "HgN/A
1:00 PM77 °FPassing clouds.10 mph44%29.83 "HgN/A
12:30 PM77 °FPassing clouds.9 mph47%29.83 "HgN/A
12:00 PM77 °FPassing clouds.8 mph32%29.83 "HgN/A
11:30 AM75 °FSunny.8 mph50%29.83 "Hg10 mi
11:00 AM75 °FSunny.9 mph50%29.83 "Hg10 mi
10:30 AM75 °FPassing clouds.8 mph44%29.83 "HgN/A
10:00 AM75 °FSunny.8 mph44%29.83 "Hg10 mi
9:30 AM73 °FSunny.7 mph47%29.83 "Hg10 mi
9:00 AM73 °FSunny.6 mph53%29.83 "Hg10 mi
8:30 AM73 °FSunny.1 mph47%29.83 "Hg10 mi
8:00 AM72 °FSunny.5 mph53%29.83 "Hg10 mi
7:30 AM70 °FSunny.7 mph69%29.83 "Hg10 mi
7:00 AM68 °FSunny.6 mph78%29.80 "Hg10 mi
6:00 AM63 °FClear.No wind68%29.80 "Hg10 mi
5:30 AM61 °FClear.3 mph68%29.80 "Hg10 mi
5:00 AM61 °FClear.5 mph68%29.80 "Hg10 mi
4:30 AM61 °FClear.3 mph59%29.80 "Hg10 mi
4:00 AM61 °FClear.1 mph55%29.80 "Hg10 mi
3:30 AM63 °FClear.1 mph49%29.80 "Hg10 mi
3:00 AM63 °FClear.2 mph49%29.80 "Hg10 mi
2:30 AM61 °FClear.6 mph52%29.80 "Hg10 mi
2:00 AM63 °FPassing clouds.3 mph45%29.80 "HgN/A
1:30 AM63 °FClear.3 mph45%29.83 "Hg10 mi
1:00 AM63 °FClear.3 mph49%29.83 "Hg10 mi
12:30 AM64 °FClear.3 mph46%29.83 "Hg10 mi
12:00 AM66 °FClear.5 mph43%29.83 "Hg10 mi
11:30 PM
Tue, May 5
66 °FClear.5 mph43%29.86 "Hg10 mi
11:00 PM68 °FClear.6 mph40%29.86 "Hg10 mi
10:30 PM68 °FClear.3 mph40%29.86 "Hg10 mi
10:00 PM66 °FClear.2 mph46%29.86 "Hg10 mi
9:30 PM68 °FPassing clouds.5 mph40%29.86 "HgN/A
9:00 PM68 °FClear.5 mph40%29.86 "Hg10 mi
8:30 PM72 °FSunny.6 mph36%29.86 "Hg10 mi
8:00 PM73 °FSunny.6 mph31%29.83 "Hg10 mi
7:30 PM73 °FSunny.6 mph33%29.83 "Hg10 mi
7:00 PM75 °FSunny.3 mph41%29.83 "Hg10 mi
6:30 PM77 °FPassing clouds.3 mph30%29.83 "HgN/A
6:00 PM77 °FPassing clouds.5 mph32%29.83 "HgN/A
5:30 PM77 °FPassing clouds.5 mph32%29.83 "HgN/A
5:00 PM77 °FPassing clouds.7 mph34%29.83 "HgN/A
4:30 PM77 °FPassing clouds.7 mph36%29.86 "HgN/A
4:00 PM75 °FPassing clouds.6 mph44%29.86 "HgN/A
3:30 PM75 °FPassing clouds.8 mph54%29.86 "HgN/A
3:00 PM75 °FPassing clouds.9 mph57%29.89 "HgN/A
2:30 PM75 °FPassing clouds.10 mph57%29.89 "HgN/A
2:00 PM75 °FPassing clouds.12 mph61%29.89 "HgN/A
Weather by CustomWeather, © 2015

See weather overviewHow to use our weather pages